Location: Goettingen
(51.5300°N, 9.9433°E)
Time: 03:08:57
(UTC+01:00)

ISS - Visible Passes

Search period start: 23 January 2018 00:00
Search period end: 02 February 2018 00:00
Orbit: 402 x 407 km, 51.6° (Epoch: 23 January)

Date Brightness Start Highest point End Pass type
(mag) Time Alt. Az. Time Alt. Az. Time Alt. Az.
26 Jan -1.6 18:55:15 10° S 18:56:31 15° SSE 18:56:31 15° SSE visible
27 Jan -1.3 18:04:54 10° SE 18:05:19 10° SE 18:05:45 10° SE visible
27 Jan -1.5 19:38:01 10° SW 19:39:14 20° SW 19:39:14 20° SW visible
28 Jan -2.7 18:46:03 10° SSW 18:48:55 28° SSE 18:49:12 27° SE visible
28 Jan -0.3 20:21:51 10° WSW 20:21:52 10° WSW 20:21:52 10° WSW visible
29 Jan -1.9 17:54:22 10° S 17:56:44 19° SE 17:59:07 10° E visible
29 Jan -2.6 19:29:34 10° WSW 19:31:46 38° SW 19:31:46 38° SW visible
30 Jan -3.3 18:37:21 10° SW 18:40:29 46° SSE 18:41:37 31° ESE visible
30 Jan -0.7 20:13:35 10° W 20:14:16 15° W 20:14:16 15° W visible
31 Jan -2.6 17:45:16 10° SW 17:48:13 32° SSE 17:51:11 10° E visible
31 Jan -3.5 19:21:13 10° WSW 19:24:03 65° WSW 19:24:03 65° WSW visible
01 Feb -3.8 18:28:51 10° WSW 18:32:06 70° SSE 18:33:49 25° E visible
01 Feb -1.1 20:05:18 10° W 20:06:28 20° W 20:06:28 20° W visible
